Theta_e
312 311 310 309 308 307 307 306 305 305 306 306 306 306 307 306 305 305 306 304 304 304 304 303 302 305 304 304 305 304 305 304 303 306 305 306 305 303 304 304 304 304 304 305 305 307 307 303 303 304 302 301 301 300
312 312 311 310 309 308 307 307 306 305 306 306 306 306 307 307 305 305 307 304 303 302 304 302 301 301 301 301 303 303 306 305 304 304 305 303 305 302 302 305 303 306 306 306 306 307 304 302 304 301 300 300 300 299
309 311 313 312 310 309 308 307 306 306 306 307 307 306 306 307 306 305 304 303 304 300 300 301 301 299 300 300 300 304 302 302 303 301 303 303 305 302 305 304 304 303 303 305 306 305 304 302 299 299 299 298 298 297
302 308 312 313 312 311 309 307 307 306 305 307 307 307 306 306 306 305 304 302 303 301 300 301 298 298 297 298 299 300 300 301 302 301 303 304 305 303 305 305 304 304 302 303 303 303 303 301 299 297 297 296 295 295
299 300 309 311 313 312 310 307 307 307 306 306 308 308 307 306 306 304 302 302 302 302 303 302 298 297 297 298 299 299 300 300 300 302 300 304 303 304 302 302 304 303 303 303 306 302 302 301 297 296 295 295 294 294
298 298 300 309 311 312 310 308 307 307 305 306 308 309 308 307 305 303 302 301 301 302 297 299 297 296 297 298 298 299 299 298 298 300 300 301 300 302 303 304 304 303 301 302 303 301 300 297 296 295 294 293 293 292
298 299 299 303 311 312 311 309 307 307 306 306 309 309 308 308 305 303 302 302 301 300 300 296 296 295 296 296 296 296 297 296 297 298 299 299 299 299 300 304 305 303 301 300 297 297 297 295 295 292 292 293 294 293
298 299 300 299 308 311 311 309 307 307 306 306 308 308 308 305 302 301 300 300 300 301 300 294 295 296 295 297 298 295 297 296 298 298 300 300 299 300 303 302 302 301 301 299 297 297 297 295 292 292 292 292 292 291
299 300 301 300 307 311 311 310 308 307 306 306 308 307 303 301 301 300 300 300 300 300 299 294 295 300 294 296 295 296 297 300 296 300 300 301 301 302 302 301 300 300 299 298 294 292 291 292 291 291 292 292 291 289
301 302 303 300 304 310 311 310 308 307 306 306 304 300 299 299 299 298 297 297 297 297 296 294 295 299 297 296 298 298 296 299 301 298 296 300 300 300 299 299 298 299 296 292 291 292 291 291 291 292 292 290 289 289
304 304 303 302 306 310 311 309 307 307 305 302 296 295 296 297 296 296 298 298 296 296 295 295 295 297 296 300 300 298 300 299 299 297 299 296 299 298 296 296 296 297 293 292 292 291 290 290 290 290 290 290 290 290
303 303 304 305 306 310 310 308 307 305 302 298 296 295 295 294 295 297 298 297 296 295 294 295 296 297 296 297 300 298 300 298 300 294 297 296 296 295 294 295 293 291 291 290 291 291 291 291 291 290 290 290 290 290
303 304 306 306 308 309 308 307 306 303 300 298 294 293 295 295 296 296 293 295 289 291 295 295 297 295 294 296 298 298 299 299 295 298 297 295 295 293 293 293 291 291 291 291 291 292 291 291 291 290 290 291 291 290
304 304 305 306 308 309 308 305 301 301 302 295 296 295 298 293 292 291 290 288 290 291 293 292 293 295 295 297 299 299 298 296 298 298 295 293 293 292 292 293 292 290 290 290 288 290 290 289 290 290 290 290 290 289
307 306 307 308 308 307 306 299 300 301 293 295 295 296 294 290 285 286 283 288 290 292 293 294 293 293 295 297 297 298 297 297 296 295 295 293 293 292 291 291 291 292 290 288 291 289 289 290 289 288 290 290 289 289
307 306 305 307 307 302 298 297 297 292 292 292 292 292 291 287 285 285 289 291 291 293 293 294 294 296 297 297 298 298 297 294 294 294 293 289 290 291 291 291 291 292 292 292 292 291 291 290 289 288 289 289 289 288
295 293 294 294 295 294 295 296 292 292 292 292 292 291 290 289 291 290 292 292 293 295 295 294 294 295 291 297 296 294 295 294 294 292 290 290 290 290 290 290 290 291 290 290 291 291 290 290 290 288 286 288 289 288
292 292 292 292 293 294 292 291 292 292 292 292 293 292 291 291 292 291 291 292 294 294 295 295 291 295 293 287 289 291 291 290 290 290 291 290 290 290 291 289 290 290 289 290 290 290 289 288 286 287 288 288 288 288
292 292 292 292 292 292 291 290 291 291 291 291 290 289 290 290 289 290 290 291 291 290 291 289 291 292 291 290 290 289 289 289 290 289 289 290 290 289 289 289 289 288 288 288 288 287 288 289 288 289 288 288 288 288
294 293 293 292 293 291 289 289 290 290 291 290 289 289 290 290 288 288 288 289 289 285 290 292 291 290 291 290 289 289 288 288 288 287 287 287 289 289 288 288 287 288 288 288 288 288 288 288 288 288 288 288 287 287
293 293 293 292 291 290 288 288 288 288 287 288 286 287 287 284 284 283 282 285 283 282 285 289 289 290 290 290 290 290 288 288 288 289 289 288 289 289 288 288 288 288 287 288 287 288 289 288 288 288 288 288 288 288
291 292 292 291 288 288 289 287 287 287 286 285 285 284 283 283 280 279 277 280 279 284 286 287 289 289 289 287 288 289 289 289 289 288 289 289 288 287 287 287 287 286 287 287 287 287 288 288 288 288 288 288 288 288
291 290 289 289 284 282 286 287 286 287 283 283 281 279 278 277 275 276 277 277 281 284 287 287 288 289 288 289 288 288 289 288 287 287 287 287 287 287 287 287 287 286 286 287 287 287 287 288 288 288 288 288 288 287
290 286 282 280 279 281 282 282 280 284 284 285 282 278 276 275 272 273 279 278 284 285 284 285 286 285 285 285 284 286 287 287 287 286 287 286 285 286 287 287 287 287 287 287 287 287 287 287 287 287 287 287 287 286
282 281 279 280 274 277 277 286 286 285 276 275 283 276 274 271 275 272 276 280 279 283 284 284 283 284 286 286 285 286 287 287 285 285 287 287 287 286 286 286 287 287 287 287 286 286 287 287 287 286 286 286 286 285
279 278 278 275 278 279 277 279 283 283 275 275 275 271 268 271 277 278 277 278 282 281 283 283 284 283 285 285 286 286 287 288 287 285 287 287 287 286 286 286 286 286 287 287 287 287 287 287 287 286 286 286 286 287
278 278 281 283 282 281 280 279 279 277 273 276 273 273 272 276 275 278 279 279 282 287 288 289 287 285 286 287 288 288 288 288 287 287 288 288 287 287 287 286 286 287 287 287 287 287 286 286 285 285 285 286 285 285
278 278 280 278 280 276 277 276 273 275 276 277 278 275 277 278 281 281 281 287 288 288 288 288 288 288 288 287 288 287 287 288 288 287 287 287 287 287 287 287 287 287 286 287 287 287 287 286 285 285 285 284 284 285
286 280 279 282 279 282 279 279 278 279 281 280 280 279 279 279 279 279 286 287 287 287 286 287 287 287 287 287 288 288 288 287 284 281 282 284 284 285 287 286 286 286 286 285 285 285 285 286 286 286 285 285 285 285
283 278 277 274 278 280 279 280 278 276 279 281 281 282 285 286 287 288 288 287 286 286 287 287 287 287 285 285 284 286 287 286 286 285 284 285 285 286 286 285 284 284 284 283 283 284 284 284 284 284 284 283 283 282
279 276 275 276 277 276 276 277 276 283 278 277 278 283 286 286 287 287 287 287 287 286 286 285 285 286 285 284 282 276 282 286 286 286 286 286 285 284 284 283 283 283 282 281 282 282 282 281 281 281 281 281 281 281
281 277 281 283 278 274 269 274 272 272 274 273 284 275 273 276 278 280 288 288 287 284 286 286 285 286 285 285 285 285 284 285 285 285 284 283 283 283 283 283 283 283 282 282 282 282 282 281 281 281 281 281 282 283
284 284 283 280 276 275 272 275 274 273 270 270 273 272 273 279 282 281 285 285 285 285 285 285 285 286 287 286 286 284 284 283 282 281 281 281 282 282 283 282 281 281 281 281 281 281 281 281 281 281 282 282 283 283
Wind_Speed
35 34 32 29 26 24 22 18 14 15 12 10 7 4 4 4 6 5 2 8 3 1 3 4 5 0 2 1 4 4 3 1 2 2 3 4 3 4 2 4 6 7 7 4 4 4 9 7 4 6 4 3 5 4
36 35 34 32 29 28 24 23 16 17 15 12 10 7 5 3 3 3 1 5 5 2 2 2 2 2 2 1 2 2 2 3 5 3 2 1 2 1 4 3 3 3 7 5 9 7 4 7 1 2 3 4 3 5
21 36 35 34 33 31 28 25 23 17 17 15 12 10 7 4 2 2 1 4 1 2 3 1 1 0 2 1 1 3 2 1 1 1 3 2 4 3 3 5 4 4 5 3 2 5 6 6 4 3 4 5 6 5
26 25 37 35 34 34 31 29 25 21 20 18 16 13 9 7 3 2 1 1 2 3 1 3 1 1 3 2 2 2 2 2 4 2 0 2 3 3 3 3 4 4 5 5 5 3 2 4 4 7 7 7 7 5
28 30 29 41 37 36 35 32 28 25 22 21 19 16 12 9 5 3 3 3 4 3 3 2 1 2 4 2 2 1 3 1 2 2 1 3 3 1 2 0 4 5 6 5 6 6 4 4 8 8 7 6 7 6
33 32 35 36 42 37 37 34 30 27 24 22 21 20 16 12 7 3 1 2 7 6 3 1 1 2 4 4 4 5 2 1 2 3 3 3 1 1 2 3 6 6 5 6 5 3 1 7 7 6 7 8 7 6
35 37 38 40 45 39 39 37 32 29 26 23 21 21 19 15 13 4 2 4 8 5 2 2 2 2 1 2 2 3 3 1 2 1 2 2 2 2 2 4 4 6 4 4 6 8 4 3 5 8 8 9 6 3
40 41 42 44 45 44 40 40 34 31 27 24 21 21 20 19 11 5 5 8 5 2 2 2 3 1 4 2 2 1 2 2 0 1 2 2 1 2 5 6 4 5 2 5 7 2 5 5 8 6 6 4 1 3
46 44 45 46 47 47 43 41 38 32 27 23 20 23 20 3 6 6 9 6 2 1 2 2 4 3 2 1 2 1 1 2 0 2 2 2 3 7 7 5 5 5 6 6 5 6 7 7 7 6 4 2 3 6
41 43 47 48 49 48 44 41 39 33 27 23 21 5 2 5 17 16 4 2 2 2 2 3 2 3 3 2 1 2 1 1 2 4 1 3 5 8 10 10 7 6 6 8 6 4 6 5 4 3 1 3 5 7
35 42 48 50 49 50 45 45 42 35 37 12 4 2 11 14 4 2 3 3 2 2 3 3 3 3 3 3 2 0 2 1 2 3 3 3 3 2 6 9 6 6 7 6 7 7 7 7 5 2 4 7 13 17
34 42 46 48 48 51 46 46 43 35 16 17 22 15 7 2 2 3 4 3 4 5 3 4 3 2 2 2 2 2 2 2 4 2 2 3 3 4 6 6 4 5 10 8 12 8 7 6 5 5 8 13 20 25
31 38 42 45 45 47 47 47 48 37 40 18 7 4 4 3 3 7 9 4 3 3 4 3 3 3 2 1 2 2 3 4 2 2 3 3 3 6 5 4 5 7 10 9 6 4 3 5 7 11 14 18 23 25
29 34 39 41 43 44 50 54 50 43 12 3 5 7 7 5 5 4 4 4 3 4 6 4 2 2 2 2 2 4 3 3 3 3 4 2 3 3 4 3 3 3 5 2 3 6 9 13 18 19 20 23 23 22
29 34 36 41 48 48 54 57 44 27 6 3 3 5 4 2 2 2 2 3 1 4 4 3 3 2 1 2 3 2 3 4 4 4 3 3 3 2 1 2 4 3 4 6 15 13 18 21 19 21 26 26 26 26
28 27 16 36 45 56 56 40 21 7 4 3 3 3 2 4 1 2 2 3 1 4 2 2 3 3 4 3 4 5 3 5 3 2 3 4 3 2 2 3 6 9 11 15 18 20 21 18 20 23 28 28 27 27
41 17 38 43 38 34 29 14 6 4 3 3 2 4 3 3 3 3 3 3 5 3 2 3 5 6 1 3 3 3 4 2 2 1 1 4 4 4 5 9 12 15 16 18 21 22 24 30 28 23 16 30 26 28
40 33 32 30 34 31 14 7 4 3 4 2 3 3 2 2 3 3 3 4 3 2 2 3 3 2 4 4 3 3 2 2 2 2 3 5 7 11 14 13 18 21 21 24 26 27 26 23 17 19 22 25 27 27
27 25 23 20 16 7 4 5 4 4 4 2 3 2 2 2 1 3 3 5 4 3 4 2 2 4 3 3 4 3 2 2 3 4 4 11 15 17 19 21 21 20 21 23 21 18 19 23 24 25 26 24 20 26
22 17 13 18 9 6 4 3 4 4 3 2 2 2 2 2 1 2 2 2 2 2 1 3 4 3 4 4 4 4 3 4 3 3 4 5 16 17 17 19 17 22 23 23 25 21 19 21 23 23 25 23 18 21
17 14 12 13 9 13 4 2 3 3 2 3 2 1 0 1 2 2 1 1 2 3 3 4 5 7 15 15 14 10 7 8 6 7 8 8 14 17 20 22 23 22 16 17 14 17 18 20 27 23 24 26 24 24
7 8 7 11 7 5 4 10 3 2 2 1 2 2 2 0 1 2 1 2 3 4 4 5 7 9 7 5 12 18 17 20 20 16 19 20 9 8 11 17 15 12 17 18 16 17 23 26 23 23 25 27 26 27
7 7 7 8 6 5 1 4 4 2 3 0 2 3 3 2 2 2 1 3 4 6 9 7 10 17 12 19 21 23 27 19 11 15 19 17 18 22 19 22 19 16 12 19 22 23 24 29 26 25 25 24 23 24
7 5 4 3 4 2 1 2 2 2 1 1 2 2 3 2 1 3 3 3 4 3 3 6 9 4 6 7 4 10 20 14 18 19 22 15 9 17 20 23 24 24 21 26 25 24 24 23 24 23 22 22 23 21
6 5 5 4 4 5 4 2 2 2 1 2 1 4 3 2 1 2 4 4 3 4 6 5 4 4 6 7 5 15 24 16 13 10 25 15 20 19 19 20 23 25 23 25 22 22 24 24 22 21 22 20 22 22
4 3 3 3 1 4 3 3 5 5 3 2 5 2 2 3 1 6 3 3 3 3 3 4 4 3 5 9 8 7 20 20 20 12 24 18 20 16 11 9 9 17 24 24 24 21 21 21 20 22 22 25 25 25
2 2 1 1 3 4 3 2 1 3 3 5 3 3 3 2 6 4 3 3 3 10 15 16 18 11 11 17 23 25 27 24 22 22 28 29 27 25 23 16 12 26 26 24 24 24 24 23 21 21 22 22 21 23
4 4 5 3 1 1 4 2 4 6 4 3 3 4 7 8 6 4 5 8 13 16 19 23 26 29 27 26 27 27 27 28 25 24 23 24 22 18 20 21 23 22 22 22 23 23 25 24 23 23 23 22 23 26
3 2 4 4 1 2 5 6 5 4 4 5 5 4 5 5 4 4 19 22 23 21 20 19 24 22 21 23 24 24 24 23 9 6 9 8 6 16 20 19 19 20 23 25 25 21 21 24 26 25 24 22 23 23
3 2 3 2 5 6 5 6 4 3 3 4 3 4 6 10 22 28 31 26 18 17 22 21 22 18 16 14 14 22 21 15 14 12 5 7 9 21 23 23 22 23 25 25 26 28 25 24 24 23 23 23 22 21
2 3 3 2 4 4 4 3 4 3 2 4 4 7 15 9 20 26 22 27 26 23 19 16 20 18 12 13 8 4 8 15 10 13 15 21 25 26 20 19 24 26 25 24 20 19 19 20 20 20 21 21 21 17
2 4 4 3 4 4 3 2 2 2 3 3 6 2 3 2 3 3 5 9 8 6 9 9 9 10 10 11 11 14 16 19 21 20 21 23 25 23 22 24 25 23 21 20 21 21 19 18 16 16 16 17 18 18
2 2 0 2 4 5 3 2 3 5 3 3 3 1 3 4 5 4 4 7 4 6 7 6 6 11 16 20 20 18 15 15 19 24 24 23 22 23 24 22 22 23 23 22 19 17 19 17 16 16 17 16 16 16
Wind_Direction
238 239 240 241 244 248 246 242 240 237 237 249 252 284 324 354 15 20 47 21 10 145 291 24 4 303 356 98 154 189 88 335 68 170 176 234 185 223 195 172 179 169 157 186 163 203 268 158 107 177 194 110 134 114
239 241 239 240 240 241 243 240 236 235 234 236 236 241 283 315 0 16 122 357 344 159 240 358 97 106 78 92 138 191 194 161 183 150 218 346 276 186 184 248 166 227 190 181 189 214 233 206 177 107 123 125 116 123
245 242 242 238 238 239 238 237 234 234 233 231 226 231 246 282 310 2 43 16 27 55 333 33 263 69 194 192 138 158 300 7 48 179 169 189 229 138 204 240 208 258 182 223 161 233 211 179 106 129 118 124 130 129
260 245 239 243 239 237 235 234 231 231 228 229 226 223 229 253 271 293 221 0 111 119 115 278 109 328 345 324 217 194 144 123 107 71 224 212 215 165 225 252 214 210 138 197 258 273 59 165 178 154 127 125 127 140
272 255 240 243 241 238 231 229 229 225 226 227 225 220 218 223 243 256 249 236 207 167 190 271 94 28 353 338 53 177 194 103 115 101 116 241 264 277 260 274 233 185 191 188 230 208 176 207 163 150 141 151 155 149
272 264 246 240 243 239 227 226 226 225 223 223 226 219 216 215 204 198 322 221 184 177 103 324 284 20 40 83 93 74 79 77 105 150 210 242 236 196 267 249 260 227 218 229 223 144 155 130 136 144 142 156 166 170
271 264 251 235 235 236 227 222 220 220 219 217 220 214 213 207 192 189 190 154 156 160 106 342 294 252 121 86 48 39 37 42 109 206 231 237 271 156 218 247 251 251 181 125 125 101 61 170 177 163 144 160 163 194
264 260 248 234 231 230 226 218 216 217 215 212 215 211 208 188 179 184 168 156 165 134 99 132 265 349 185 148 117 131 113 53 265 241 273 220 251 230 251 251 296 325 317 165 178 126 176 148 130 131 129 138 179 272
265 249 237 228 223 223 223 215 209 209 208 207 214 183 151 162 138 152 147 154 153 253 206 129 166 225 149 60 88 100 135 166 79 237 242 178 198 227 243 261 268 266 202 189 129 102 102 121 129 135 140 169 256 269
248 232 227 220 215 218 218 215 203 198 196 179 150 117 117 154 131 127 74 50 19 303 35 210 177 196 132 136 168 130 47 221 229 223 127 229 258 278 286 276 248 258 200 142 106 124 114 121 135 127 196 261 246 267
230 217 214 208 206 213 212 206 193 183 164 163 111 89 124 135 104 60 143 170 154 231 199 219 181 138 208 133 151 192 159 184 244 237 187 249 262 262 318 310 269 199 164 145 117 121 129 139 149 181 288 290 293 288
218 207 200 199 202 206 204 190 177 162 159 140 117 114 123 97 89 154 183 165 200 223 174 145 184 136 137 102 119 174 193 170 256 142 222 250 259 308 329 332 22 103 118 112 127 133 137 146 180 213 253 268 287 298
204 198 195 194 198 203 192 178 170 158 135 115 82 122 144 155 170 191 182 203 206 183 167 146 121 128 105 68 117 150 204 227 112 216 237 229 307 331 339 7 51 93 106 110 115 126 204 249 254 251 261 282 295 293
197 196 195 195 193 197 185 165 154 148 135 105 148 145 197 182 221 186 178 162 203 128 131 114 91 133 134 130 152 212 206 133 225 227 231 272 297 312 17 77 84 58 67 68 259 251 256 257 260 272 280 289 292 285
194 190 191 190 191 178 164 153 149 144 99 120 153 166 174 143 62 133 142 89 32 119 115 95 71 101 138 176 200 211 196 234 217 227 173 206 224 192 102 119 152 202 240 248 262 255 257 266 269 276 289 291 295 292
180 159 171 178 169 152 142 141 129 82 77 105 98 109 102 79 8 42 95 109 151 129 101 80 134 157 200 201 184 211 202 221 244 212 193 161 172 228 243 225 231 240 254 264 277 282 282 278 274 279 295 296 296 290
91 90 99 106 115 123 131 122 79 67 90 99 94 61 90 82 133 151 138 140 149 133 153 134 160 199 95 204 220 197 209 205 206 254 187 201 232 255 251 249 254 262 266 273 277 281 280 287 289 290 289 294 293 286
92 95 85 88 98 88 68 59 79 78 79 83 98 106 83 93 111 120 112 131 130 159 123 178 128 162 194 186 248 246 222 233 214 211 236 260 263 260 249 243 259 271 271 274 277 278 282 285 282 280 283 284 289 288
92 88 80 72 62 72 68 43 38 87 64 73 71 70 94 111 81 101 119 145 89 110 116 82 151 196 218 214 215 238 245 215 238 248 239 253 260 260 264 274 281 280 277 275 276 270 273 276 271 279 280 280 272 279
94 97 73 50 81 89 76 36 50 82 76 75 54 48 77 82 55 65 98 98 88 79 138 212 222 217 204 225 209 228 223 224 232 265 266 262 270 275 276 275 270 275 278 282 282 279 278 279 275 270 271 270 266 272
63 58 49 46 48 58 79 60 58 61 69 60 5 17 73 38 63 108 160 158 91 182 211 217 225 241 241 250 264 268 240 230 241 258 272 276 272 260 262 266 270 271 263 271 269 273 269 260 271 277 276 277 279 274
59 56 46 36 64 58 68 24 81 68 67 79 45 26 60 41 264 260 180 82 204 221 208 211 236 246 258 255 256 264 262 262 264 261 267 271 277 272 265 264 259 256 259 261 264 264 271 276 281 281 274 276 283 282
61 37 46 33 64 49 0 11 74 28 85 313 28 27 331 324 236 1 232 218 241 235 231 227 242 252 246 265 273 274 274 265 260 258 261 262 259 262 266 269 264 255 266 273 267 259 264 276 279 276 277 279 279 282
49 54 64 77 77 124 53 38 53 84 53 111 101 311 289 233 331 53 241 252 243 253 204 234 241 265 280 260 246 257 265 254 246 260 261 248 252 265 259 262 271 268 260 267 270 269 269 270 272 272 273 270 273 271
68 340 80 17 358 74 67 89 118 117 150 231 161 299 278 45 55 281 230 260 240 239 252 254 219 218 245 265 265 265 276 252 230 251 273 259 255 267 272 267 266 270 278 272 270 272 275 279 278 275 273 268 266 268
70 297 104 177 285 104 160 120 186 188 144 180 229 258 37 86 64 248 233 236 234 226 235 222 230 240 253 234 256 270 281 283 264 246 271 274 264 249 265 276 285 287 284 283 279 278 280 282 279 277 276 278 277 279
92 261 262 356 122 108 69 43 64 110 168 203 221 146 97 176 240 249 262 240 219 242 262 273 256 234 253 271 277 280 285 282 266 266 284 290 289 284 273 268 277 281 292 293 294 291 284 284 283 282 281 283 278 275
187 166 158 212 74 83 135 137 168 205 225 210 116 182 187 203 228 228 214 254 265 276 281 283 283 280 273 274 279 282 284 288 288 289 290 291 291 291 290 293 297 305 305 305 304 303 299 293 286 288 286 284 286 289
206 189 104 154 120 195 205 189 211 222 197 160 176 221 232 225 234 246 278 282 289 285 271 284 289 288 284 283 282 283 284 285 278 282 285 285 297 296 317 317 313 312 311 309 304 299 293 291 288 288 290 290 291 294
243 152 107 161 176 217 231 187 219 223 205 200 222 294 276 272 274 282 284 285 279 270 275 275 276 278 272 280 289 302 306 303 285 243 253 266 263 294 302 305 309 313 314 311 306 305 304 303 302 301 303 307 308 308
126 98 87 171 231 240 225 254 278 245 244 231 209 239 263 287 298 294 275 270 266 265 263 268 280 286 273 280 271 274 296 312 316 305 287 286 291 295 295 303 313 314 312 309 300 295 298 301 303 305 307 308 309 307
140 177 167 227 273 286 351 198 259 234 264 239 255 186 353 57 263 278 301 308 291 281 279 273 270 307 333 320 312 304 296 293 299 304 306 306 304 300 300 306 305 300 296 296 295 295 296 295 295 295 291 295 302 302
207 171 198 353 322 319 315 32 340 316 330 300 283 267 217 190 233 266 331 339 323 330 342 351 348 335 325 316 308 306 304 306 308 306 305 301 296 294 297 300 300 297 296 294 287 289 298 294 290 291 294 296 300 305